This demonstration page uses our WeatherBlox Daily Observations layout. Learn more.

Left ArrowRight Arrow

39.08367, -84.50855

Hourly Observations for April 23, 2022

Temp ( °F °C ) Dew Point ( °F °C ) Humidity (%) Winds ( mph kmh ) Pressure ( in mb ) Visibility ( mi km ) Precip ( " mm )
12:53 am 00:53 Clear 57 13.9 54 12.2 90 90 Calm 30.18 1022 10 16 0.00 0.00
1:53 am 01:53 Clear 54 12.2 53 11.7 97 97 Calm 30.18 1022 10 16 0.00 0.00
2:43 am 02:43 Clear with Mist and Fog 53 11.7 53 11.7 100 100 Calm 30.18 1022 3 4 0.00 0.00
2:50 am 02:50 Clear 52 11 52 11 100 100 Calm 30.19 1022 8 13 0.00 0.00
2:53 am 02:53 Clear 53 11.7 53 11.7 100 100 Calm 30.17 1022 8 13 0.00 0.00
3:53 am 03:53 Clear with Mist and Fog 51 10.6 51 10.6 100 100 Calm 30.16 1021 3 5 0.00 0.00
4:46 am 04:46 Clear with Mist and Fog 51 10.6 51 10.6 100 100 Calm 30.18 1022 2 3 0.00 0.00
4:53 am 04:53 Clear with Mist and Fog 51 10.6 51 10.6 100 100 Calm 30.16 1021 3 4 0.00 0.00
5:02 am 05:02 Clear 51 10.6 51 10.6 100 100 Calm 30.18 1022 8 13 0.00 0.00
5:12 am 05:12 Clear with Mist and Fog 50 10 50 10 100 100 Calm 30.18 1022 2 2 0.00 0.00
5:22 am 05:22 Clear with Mist and Fog 51 10.6 51 10.6 100 100 Calm 30.18 1022 3 5 0.00 0.00
5:53 am 05:53 Clear 51 10.6 51 10.6 100 100 Calm 30.16 1022 9 14 0.00 0.00
6:53 am 06:53 Sunny with Mist and Fog 50 10 50 10 100 100 Calm 30.17 1022 3 4 0.00 0.00
7:05 am 07:05 Sunny with Mist and Fog 50 10 50 10 100 100 Calm 30.19 1022 8 13 0.00 0.00
7:53 am 07:53 Sunny with Mist and Fog 52 11.1 52 11.1 100 100 Calm 30.19 1022 6 10 0.00 0.00
8:53 am 08:53 Sunny 58 14.4 54 12.2 87 87 Calm 30.19 1022 10 16 0.00 0.00
9:53 am 09:53 Sunny 67 19.4 59 15 76 76 Calm 30.18 1022 10 16 0.00 0.00
10:53 am 10:53 Sunny 76 24.4 59 15 56 56 SSW 17 28 30.16 1021 10 16 0.00 0.00
11:53 am 11:53 Sunny 79 26.1 59 15 50 50 SSW 20 31 30.15 1021 10 16 0.00 0.00
12:53 pm 12:53 Sunny 81 27.2 59 15 47 47 SW 16 26 30.14 1021 10 16 0.00 0.00
1:53 pm 13:53 Sunny 82 27.8 58 14.4 44 44 SSW 10 17 30.11 1020 10 16 0.00 0.00
2:53 pm 14:53 Sunny 83 28.3 58 14.4 43 43 S 16 26 30.09 1019 10 16 0.00 0.00
3:53 pm 15:53 Sunny 83 28.3 57 13.9 41 41 SW 14 22 30.06 1018 10 16 0.00 0.00
4:09 pm 16:09 Sunny 83 28.3 58 14.4 43 43 SSW 12 19 30.03 1017 10 16 0.00 0.00
4:53 pm 16:53 Sunny 83 28.3 58 14.4 43 43 S 15 24 30.04 1017 10 16 0.00 0.00
5:53 pm 17:53 Sunny 82 27.8 57 13.9 42 42 S 17 28 30.02 1017 10 16 0.00 0.00
6:53 pm 18:53 Sunny 81 27.2 55 12.8 41 41 SSW 14 22 30.01 1016 10 16 0.00 0.00
7:53 pm 19:53 Sunny 77 25 56 13.3 48 48 S 7 11 30.01 1016 10 16 0.00 0.00
8:46 pm 20:46 Mostly Clear 73 22.8 54 12.2 51 51 Calm 30.01 1016 10 16 0.00 0.00
8:53 pm 20:53 Clear 75 23.9 54 12.2 48 48 Calm 30.02 1017 10 16 0.00 0.00
9:53 pm 21:53 Clear 64 17.8 57 13.9 78 78 SSW 3 6 30.03 1017 10 16 0.00 0.00
10:53 pm 22:53 Clear 61 16.1 58 14.4 90 90 SSW 3 6 30.03 1017 10 16 0.00 0.00
11:53 pm 23:53 Clear 61 16.1 57 13.9 87 87 SW 3 6 30.03 1017 10 16 0.00 0.00

Powered by AerisWeather